Location: Unspecified
(0.0000°N, 0.0000°E)
Time: 19:59:19
(UTC+00:00)

CZ-3C DEB - Pass Details

Date: 07 March 2026
Orbit: 544 x 34777 km, 21.8° (Epoch: 16 April)

Event Time Altitude Azimuth Distance (km) Brightness Sun altitude
Rises 16:00:02 0° 247° (WSW) 15,782 ? 32.6°
Reaches altitude 10° 16:13:53 10° 246° (WSW) 17,858 ? 29.1°
Maximum altitude 17:46:33 28° 251° (WSW) 30,234 ? 6.1°
Drops below altitude 10° 21:03:31 10° 265° (W) 38,984 ? -42.9°
Sets 22:28:54 0° 270° (W) 35,404 ? -64.0°
